CZ-4C R/B, 64754

Orbit data source: Space-Track

CZ-4C R/B, 64754 is space debris in LEO originally from a launch on Thu, 03 Jul 2025 UTC launched from the Xichang Space Center, China (XSC). Debris objects in space refer to the collection of defunct objects orbiting the Earth. Examples of debris include non-operational satellites, rocket bodies, and fragments generated from explosions, collisions, or faulty payload assembly.

Not visible in the next 10 days
Identifier
64754, 2025-145B
Orbit
LEO
Country
Flag of CNCN / PRC
Related business
Manufacturer
SAST
Mission
Spacecraft
Bus & Motor
CZ-4 STAGE 3, Unknown motor
Mass
~1,000 kg wet, ~1,000 kg dry
Launch date (UTC)
2025-07-03 (1 year ago)
Launch vehicle
Unknown
Launch site
Xichang Space Center, China (XSC)
Object type
Payload
Rocket body
Debris
Shape & HBR
Cyl, 2.7 m
Radar Cross Section
14.536 m², Large (>1 m²)

Expand to show TLE details & history
Last TLE update: 15 hours ago

TLE from 15 hours ago
0 CZ-4C R/B
1 64754U 25145B   26191.99844198  .00000658  00000-0  21044-4 0  9998
2 64754  10.9865  60.5638 0121611 254.9975 103.6765 14.56738326 54291
Epoch: 2026-07-10T23:57Z
TLE epoch observation values (Epoch: 2026-07-10T23:57:45.387Z)
Latitude
0.00001°
Longitude
132.20675°
Altitude
722.192 km
Speed
7.486 km/s
True Right ascension
04h 02m 15s
True Declination
0° 00' 00"
Sunlit
Object was in daylight at epoch
Visualization orbit readout
Latitude
Unknown
Longitude
Unknown
Altitude
Unknown
Speed
Unknown
Apparent Right ascension
Unknown
Apparent Declination
Unknown
Sunlit
N/A
Visualization observer readout
Local Sidereal Time
02:58:28
Azimuth
Unknown
Elevation
Unknown
Doppler factor
Unknown
Orbital elements
Apogee altitude
795.81 km
Perigee altitude
623.42 km
Semi-major axis
7,087.752 km
Eccentricity
0.01216
Inclination
10.9865°
RAAN
60.5638°
Arg. of periapsis
254.9975°
True anomaly
105.02557°
Mean anomaly
103.6765°
Eccentric anomaly
104.35154°
Mean motion
3.63731 °/min
Orbital period
98.97 mins
BSTAR
0.000021044
Loading maneuver chart data...
Computing Atmospheric mass density...
Loading historical data...
Loading historical data...
Loading historical data...
Loading historical data...
Loading historical data...
Loading historical data...
Loading historical data...
Other satellites on launch #145 in the year 2025 (2025-07-03 UTC)

Documentation

Showing up to 5 results
|